[[{"header":{"parameterUnit":"m.s-1","parameterCategory":1,"la1":30.2991,"la2":30.254,"lo1":-89.0895,"lo2":-89.0444,"dy":0.0017,"dx":0.0017,"nx":28,"ny":28,"refTime":"2025-06-07T03:00:00:Z","depth":0,"parameterNumber":2,"parameterNumberName":"U-component_of_WINDS"},"data":[0,0,0,0,0,0,0,0,0,0,0,0,0,0,0,0,0,0,0,0,0,0,0,0,0,0,0,0,0,0,0,0,0,0,0,0,0,0,0,0,0,0,0,0,0,0,0,0,0,0,0,0,0,0,0,0,0,0,3.1854,3.1855,0,3.191,3.191,3.1911,3.193,3.193,3.193,3.1929,3.199,3.1992,3.1994,0,0,0,0,0,0,0,0,0,0,0,0,0,3.1768,3.177,3.1854,3.1855,3.1855,3.1909,3.191,3.1911,3.193,3.193,3.193,3.1929,3.1989,3.1992,3.1994,0,0,0,0,0,0,0,0,0,0,0,0,0,3.1813,3.177,3.1854,3.1871,3.1873,3.1909,3.191,3.1911,3.193,3.193,3.1929,3.1929,3.1989,3.1991,3.1994,3.2018,0,0,3.2002,3.2004,0,0,0,0,0,0,0,0,3.181,3.1816,3.1868,3.187,3.1873,3.1912,3.1902,3.1947,3.193,3.1909,3.1929,3.1929,3.1965,3.1969,3.1981,3.2021,3.2023,3.2003,3.2004,3.2006,3.2006,0,0,0,0,0,0,0,3.1807,3.1814,3.1876,3.1869,3.1872,3.1878,3.1884,3.1911,3.1938,3.1911,3.1912,3.1918,3.1966,3.1978,3.1982,3.2024,3.2003,3.2005,3.2007,3.2008,3.2088,3.2088,0,0,0,0,0,0,3.1801,3.1811,3.1874,3.1878,3.184,3.1879,3.1886,3.19,3.1938,3.1943,3.1918,3.1919,3.1974,3.1979,3.1984,3.2015,3.2006,3.2008,3.201,3.2087,3.2088,3.2088,0,0,0,0,0,0,3.1799,3.1806,3.1872,3.1845,3.1854,3.1881,3.1897,3.1901,3.1913,3.1944,3.1949,3.1925,3.1973,3.1981,3.2009,3.2018,3.2009,3.2012,3.2086,3.2087,3.2088,3.2076,0,0,0,0,0,0,3.1796,3.1805,3.1814,3.1845,3.1855,3.1894,3.1897,3.1903,3.1918,3.1919,3.1952,3.1957,3.1974,3.2005,3.2012,3.2021,3.2014,3.2086,3.2087,3.2088,3.2076,3.2076,3.2077,0,0,0,0,0,3.1793,3.1809,3.1814,3.1821,3.1866,3.1895,3.1901,3.1919,3.1918,3.1927,3.1947,3.1956,3.2016,3.2008,3.2016,3.2026,3.2085,3.2087,3.2088,3.2076,3.2076,3.2077,0,0,0,0,0,0,3.1779,3.1813,3.1819,3.1845,3.1867,3.1898,3.191,3.1919,3.1942,3.1942,3.1965,3.1972,3.1999,3.2016,3.2007,3.2051,3.2051,3.2054,3.204,3.204,3.2041,3.2036,3.2016,0,0,0,0,0,3.1778,3.1798,3.1827,3.1847,3.1858,3.1882,3.1896,3.1907,3.1931,3.1941,3.1963,3.1987,3.2011,3.2027,3.2051,3.2079,3.2087,3.209,3.209,3.209,3.2092,3.2109,3.2111,3.2092,3.2092,3.2092,0,0,3.1778,3.1799,3.181,3.1845,3.1863,3.1884,3.189,3.1912,3.1928,3.1945,3.1973,3.199,3.2019,3.2047,3.2061,3.2061,3.21,3.2092,3.2092,3.2094,3.2111,3.2112,3.2114,3.2092,3.2092,3.2092,0,0,3.1788,3.1806,3.1824,3.1843,3.187,3.1886,3.1891,3.1921,3.1933,3.1961,3.1974,3.1995,3.2036,3.2056,3.2071,3.209,3.21,3.2098,3.21,3.2116,3.2117,3.2119,3.2126,3.2128,3.21,3.21,3.21,0,3.1784,3.1815,3.1833,3.1855,3.187,3.1886,3.1906,3.1923,3.1957,3.1968,3.1968,3.202,3.2041,3.2075,3.2079,3.2091,3.2098,3.2094,3.2116,3.2117,3.2119,3.2126,3.2129,3.2099,3.2099,3.2099,3.2099,0,3.181,3.1832,3.1844,3.1875,3.1892,3.1913,3.1935,3.1951,3.1961,3.1978,3.2008,3.2032,3.2062,3.2071,3.2082,3.2107,3.2107,3.2111,3.2111,3.212,3.2127,3.213,3.2099,3.2099,3.2099,3.2099,0,0,3.1812,3.1853,3.1858,3.1872,3.1904,3.1922,3.1944,3.1972,3.1985,3.2009,3.2028,3.2063,3.2067,3.2085,3.2099,3.2113,3.2127,3.2116,3.2117,3.2117,3.2157,3.2153,3.2156,3.2134,3.2134,3.2135,3.2154,0,3.1826,3.1864,3.1882,3.1913,3.1934,3.195,3.1969,3.1991,3.2008,3.2029,3.2048,3.2072,3.2076,3.2087,3.2101,3.2122,3.2135,3.2121,3.2153,3.2154,3.2145,3.2159,3.2156,3.2173,3.2157,3.2158,3.2158,0,3.1848,3.187,3.1903,3.1933,3.1943,3.196,3.1987,3.2007,3.2033,3.2044,3.2064,3.2077,3.2103,3.2101,3.2137,3.2127,3.2142,3.2154,3.2155,3.2159,3.2156,3.2164,3.2179,3.2181,3.2163,3.2162,3.2162,0,3.1846,3.1885,3.191,3.1922,3.1958,3.1969,3.1985,3.2011,3.2027,3.2051,3.2062,3.209,3.2105,3.2127,3.2148,3.2145,3.2182,3.2182,3.2193,3.2193,3.22,3.2199,3.2218,3.2209,3.2209,3.2209,3.2209,0,3.186,3.188,3.1909,3.1925,3.1948,3.1968,3.1991,3.2008,3.2031,3.2051,3.2067,3.2086,3.2112,3.2135,3.2152,3.2179,3.2186,3.2197,3.2201,3.2195,3.2194,3.2205,3.2204,3.221,3.221,3.221,3.2209,0,3.1862,3.1882,3.191,3.1942,3.195,3.1966,3.1994,3.201,3.2027,3.2052,3.206,3.2088,3.2115,3.2138,3.2174,3.2186,3.2215,3.222,3.2205,3.2207,3.2217,3.2216,3.2243,3.2248,3.2236,3.2236,3.2236,0,3.1869,3.1885,3.1918,3.1932,3.1947,3.1969,3.1985,3.2007,3.2024,3.2055,3.2068,3.2096,3.212,3.2164,3.2188,3.2216,3.2222,3.223,3.2226,3.222,3.2223,3.2221,3.2223,3.223,3.223,3.223,3.223,0,3.1881,3.189,3.1912,3.1938,3.1957,3.1979,3.2001,3.2012,3.2038,3.2056,3.2084,3.2102,3.2139,3.2168,3.2199,3.2216,3.2228,3.2231,3.2235,3.2229,3.222,3.2225,3.2206,3.223,3.223,3.223,3.223,3.223,3.1886,3.19,3.1926,3.195,3.1969,3.199,3.2007,3.2027,3.205,3.208,3.2092,3.2121,3.2148,3.2191,3.2209,3.2232,3.2234,3.224,3.2241,3.2242,3.2241,3.2216,3.2238,3.2238,3.2238,3.2238,3.2238,0,3.1898,3.1915,3.1938,3.1968,3.1988,3.1996,3.2022,3.2038,3.2062,3.2086,3.2109,3.2142,3.2169,3.2196,3.2225,3.2239,3.2245,3.2246,3.2246,3.225,3.2238,3.2232,3.2241,3.2241,3.2241,3.2241,3.2241,3.2241,3.1907,3.1932,3.1945,3.1981,3.1998,3.2025,3.2039,3.2059,3.2078,3.2113,3.2136,3.2153,3.2179,3.221,3.2236,3.2244,3.2254,3.2254,3.2262,3.2251,3.225,3.225,3.2244,3.2256,3.2256,3.2272,3.2272,3.2272]},{"header":{"parameterUnit":"m.s-1","parameterCategory":1,"la1":30.2991,"la2":30.254,"lo1":-89.0895,"lo2":-89.0444,"dy":0.0017,"dx":0.0017,"nx":28,"ny":28,"refTime":"2025-06-07T03:00:00:Z","depth":0,"parameterNumber":3,"parameterNumberName":"V-component_of_WINDS"},"data":[0,0,0,0,0,0,0,0,0,0,0,0,0,0,0,0,0,0,0,0,0,0,0,0,0,0,0,0,0,0,0,0,0,0,0,0,0,0,0,0,0,0,0,0,0,0,0,0,0,0,0,0,0,0,0,0,0,0,3.4688,3.4689,0,3.4709,3.4709,3.471,3.4723,3.4723,3.4723,3.4723,3.4743,3.4743,3.4744,0,0,0,0,0,0,0,0,0,0,0,0,0,3.4658,3.4659,3.4688,3.4689,3.4689,3.4709,3.4709,3.471,3.4723,3.4723,3.4723,3.4723,3.4743,3.4743,3.4744,0,0,0,0,0,0,0,0,0,0,0,0,0,3.4674,3.4659,3.4688,3.4698,3.4699,3.4709,3.4709,3.471,3.4723,3.4723,3.4723,3.4723,3.4742,3.4743,3.4744,3.4745,0,0,3.4746,3.4746,0,0,0,0,0,0,0,0,3.4673,3.4675,3.4696,3.4697,3.4699,3.4714,3.4706,3.4722,3.4723,3.4714,3.4723,3.4723,3.4733,3.4734,3.4738,3.4746,3.4747,3.4746,3.4746,3.4747,3.4747,0,0,0,0,0,0,0,3.4672,3.4674,3.4697,3.4697,3.4698,3.4701,3.4703,3.4709,3.4722,3.4715,3.4716,3.4718,3.4733,3.4737,3.4738,3.4747,3.4746,3.4746,3.4747,3.4747,3.4756,3.4756,0,0,0,0,0,0,3.467,3.4673,3.4696,3.4697,3.4686,3.4701,3.4704,3.4709,3.4722,3.4725,3.4718,3.4719,3.4736,3.4738,3.4739,3.4741,3.4747,3.4747,3.4748,3.4756,3.4756,3.4756,0,0,0,0,0,0,3.4669,3.4672,3.4695,3.4686,3.4689,3.4701,3.4707,3.4709,3.4713,3.4725,3.4727,3.4719,3.4736,3.4738,3.4743,3.4742,3.4747,3.4748,3.4757,3.4756,3.4756,3.4745,0,0,0,0,0,0,3.4668,3.4671,3.4673,3.4686,3.4689,3.47,3.4707,3.4709,3.4714,3.4715,3.4727,3.4729,3.4736,3.4742,3.4744,3.4743,3.4749,3.4757,3.4756,3.4756,3.4746,3.4744,3.4743,0,0,0,0,0,3.4667,3.4669,3.4673,3.4675,3.4691,3.47,3.4702,3.4711,3.4714,3.4715,3.4722,3.4728,3.4742,3.4743,3.4745,3.4744,3.4757,3.4757,3.4756,3.4746,3.4745,3.4743,0,0,0,0,0,0,3.4655,3.4671,3.4675,3.4681,3.4689,3.4702,3.4703,3.4709,3.4716,3.4717,3.4727,3.473,3.4734,3.4739,3.474,3.4745,3.475,3.475,3.4741,3.474,3.4739,3.4738,3.4749,0,0,0,0,0,3.4653,3.4659,3.4672,3.4676,3.468,3.4691,3.4695,3.4701,3.471,3.4713,3.4721,3.4728,3.4734,3.4737,3.4743,3.4746,3.4748,3.4746,3.4745,3.4744,3.4744,3.4745,3.4744,3.4755,3.4755,3.4755,0,0,3.4649,3.4659,3.4662,3.4674,3.4681,3.4686,3.4694,3.4699,3.4703,3.4713,3.4719,3.4725,3.4733,3.4737,3.4739,3.4742,3.4742,3.4744,3.4743,3.4744,3.4745,3.4744,3.4743,3.4755,3.4755,3.4755,0,0,3.4645,3.4653,3.4657,3.4663,3.4673,3.468,3.4681,3.4693,3.4697,3.4703,3.471,3.4715,3.4725,3.473,3.4734,3.473,3.4736,3.4732,3.4726,3.4727,3.4726,3.4725,3.4723,3.4722,3.4732,3.4732,3.4732,0,3.4639,3.4648,3.4658,3.4662,3.4667,3.4677,3.468,3.4686,3.4697,3.47,3.4703,3.4714,3.4721,3.4726,3.4725,3.4728,3.4728,3.4731,3.4725,3.4725,3.4724,3.4722,3.4721,3.4731,3.4731,3.4731,3.4731,0,3.4639,3.4645,3.4647,3.4657,3.4662,3.4666,3.4676,3.4679,3.4685,3.4691,3.4696,3.4704,3.4711,3.4713,3.4718,3.4718,3.4719,3.4724,3.4729,3.4723,3.4721,3.472,3.473,3.473,3.4731,3.4731,0,0,3.4629,3.4644,3.4645,3.4649,3.466,3.4664,3.4668,3.4675,3.4678,3.4685,3.4688,3.4695,3.4699,3.4704,3.471,3.471,3.4705,3.4715,3.4715,3.4712,3.4704,3.47,3.4699,3.4709,3.4709,3.4709,3.4703,0,3.4626,3.4634,3.4642,3.4646,3.4651,3.466,3.4663,3.467,3.4675,3.4679,3.4686,3.4691,3.4696,3.4698,3.4699,3.4706,3.4704,3.4706,3.4711,3.4711,3.4708,3.4699,3.4695,3.4689,3.4703,3.4703,3.4702,0,3.4624,3.463,3.4635,3.4644,3.4647,3.4649,3.4656,3.466,3.4667,3.4671,3.4676,3.4682,3.4685,3.469,3.4694,3.4695,3.4698,3.4701,3.4701,3.4701,3.4706,3.4698,3.4688,3.4687,3.4702,3.4702,3.4702,0,3.4615,3.4625,3.4629,3.4632,3.4643,3.4645,3.465,3.4657,3.466,3.4666,3.4668,3.4674,3.4677,3.4681,3.4688,3.4691,3.4691,3.4696,3.4693,3.4693,3.4693,3.4693,3.4682,3.4695,3.4695,3.4695,3.4695,0,3.461,3.4613,3.4625,3.4627,3.4629,3.4638,3.464,3.4646,3.4652,3.4655,3.4663,3.4665,3.4675,3.4678,3.4683,3.4685,3.4687,3.4689,3.4691,3.4688,3.4688,3.469,3.469,3.4695,3.4695,3.4695,3.4695,0,3.4601,3.4609,3.4614,3.4624,3.4626,3.4628,3.4636,3.4638,3.4644,3.4647,3.4648,3.4657,3.4661,3.4669,3.4675,3.4678,3.4679,3.4682,3.4676,3.4677,3.4674,3.4674,3.4663,3.4662,3.4677,3.4676,3.4676,0,3.4598,3.46,3.461,3.4612,3.4616,3.462,3.4624,3.4632,3.4635,3.4642,3.4643,3.4648,3.4652,3.4658,3.4664,3.4669,3.4671,3.4667,3.4672,3.4669,3.467,3.467,3.467,3.4666,3.4666,3.4666,3.4666,0,3.4591,3.4594,3.4599,3.4604,3.4608,3.4613,3.4618,3.4619,3.4629,3.4631,3.4635,3.4639,3.4644,3.4649,3.4654,3.4658,3.4663,3.4664,3.4664,3.4661,3.4658,3.4659,3.4673,3.4664,3.4665,3.4665,3.4665,3.4665,3.4584,3.4586,3.4592,3.4597,3.4601,3.4606,3.4608,3.4613,3.4617,3.4622,3.4627,3.463,3.4636,3.4643,3.4647,3.4649,3.4652,3.4651,3.4651,3.4651,3.4649,3.4658,3.465,3.465,3.465,3.465,3.465,0,3.4577,3.4581,3.4585,3.4592,3.4595,3.4599,3.4605,3.4607,3.461,3.4615,3.4618,3.4622,3.4626,3.4632,3.4636,3.4637,3.4639,3.4637,3.4637,3.4638,3.4647,3.4647,3.4635,3.4635,3.4635,3.4635,3.4635,3.4635,3.4573,3.4576,3.458,3.4584,3.4588,3.4592,3.4594,3.4598,3.4602,3.4606,3.4609,3.4613,3.4618,3.4622,3.4625,3.4627,3.4628,3.4625,3.4627,3.4636,3.4637,3.4639,3.4638,3.4625,3.4625,3.4618,3.4618,3.4618]}]]